Regional Weather Roundup
Issued by NWS Sterling, VA

Home | Current Version | Previous Version | Graphics & Text | Print | Product List | Glossary On
Versions: 1 2 3 4 5 6 7 8 9 10 11 12 13 14 15 16 17 18 19 20 21 22 23 24 25 26 27 28 29 30 31 32 33 34 35 36 37 38 39 40 41 42 43 44 45 46 47 48 49 50
583
ASUS41 KLWX 231110
RWRLWX

REGIONAL WEATHER ROUNDUP
NATIONAL WEATHER SERVICE BALTIMORE MD/WASHINGTON DC
700 AM EDT SAT JUL 23 2016

Note: "FAIR" indicates few or no clouds below 12,000 feet
with no significant weather and/or obstructions to visibility.
 TC=TEMPERATURE CELSIUS

 * =Non NWS site. Station does not report precipitation (e.g. rain,
    snow, etc.), thunder, or fog.

DCZ001-MDZ009-015-VAZ040>042-051-053>054-231200-
WASHINGTON METRO

CITY           SKY/WX    TMP DP  RH WIND       PRES   REMARKS
WASHINGTON NAT FAIR      81  71  71 NW7       29.95R
DULLES         FAIR      74  70  87 NW3       29.97R
FT BELVOIR     FAIR      71  69  95 CALM      29.95R
QUANTICO       FAIR      76  72  87 W3        29.95R
COLLEGE PARK*  FAIR      81  68  65 NW5       29.94R
LEESBURG*      FAIR      79  72  78 SW8       29.98R
MANASSAS*      CLEAR     72  72 100 CALM      29.96R
GAITHERSBURG*  CLEAR     73  68  83 NW5       30.01R

$$

MDZ006>007-011-014-231200-
BALTIMORE METRO

CITY           SKY/WX    TMP DP  RH WIND       PRES   REMARKS
BWI AIRPORT    PTCLDY    78  70  76 W7        29.94R
MD SCIENCE CTR   N/A     83  69  62 MISG      29.94R
MARTIN STATE   SUNNY     82  73  74 W8        29.94R
ANNAPOLIS      SUNNY     81  72  74 NW6       29.93R
FORT MEADE*    CLEAR     72  70  94 CALM      29.97R

$$

MDZ012-015-019>023-231200-
MARYLAND EASTERN SHORE

CITY           SKY/WX    TMP DP  RH WIND       PRES   REMARKS
OCEAN CITY     SUNNY     78  75  90 W6        29.92R
SALISBURY      SUNNY     78  75  90 W3        29.92S
BAY BRIDGE AP* SUNNY     82  73  74 NW10      29.93R
CAMBRIDGE*     SUNNY     73  72  94 CALM      29.93R
EASTON*        SUNNY     81  77  89 N3        29.96R

$$

MDZ017>025-231200-
SOUTHERN MARYLAND

CITY           SKY/WX    TMP DP  RH WIND       PRES   REMARKS
PATUXENT RIVER CLEAR     77  72  84 SW6       29.93R
ST INIGOES     CLEAR     80  75  84 SW6       29.93S
LEONARDTOWN*   CLEAR     73  70  88 CALM      29.96R

$$

MDZ003>005-231200-
NORTH CENTRAL MARYLAND

CITY           SKY/WX    TMP DP  RH WIND       PRES   REMARKS
FREDERICK*     CLEAR     79  72  78 W8        29.99R
HAGERSTOWN APT CLEAR     79  67  66 SW6       29.98R

$$

MDZ501>502-231200-
WESTERN MARYLAND

CITY           SKY/WX    TMP DP  RH WIND       PRES   REMARKS
OAKLAND*       FOG       64  64 100 W9        30.13S VSB 1/2
CUMBERLAND*    CLEAR     75  68  78 S5        30.04S

$$

VAZ025>031-231200-
SHENANDOAH VALLEY

CITY           SKY/WX    TMP DP  RH WIND       PRES   REMARKS
WINCHESTER*    FAIR      73  68  83 CALM      30.00R
FRONT ROYAL*   FAIR      70  68  94 S5        30.00R
LURAY*         FAIR      68  68 100 CALM      30.01S
NEW MARKET*    FAIR     N/A N/A N/A CALM      30.01R
STAUNTON*      FAIR      64  64  97 CALM      30.06R FOG
WAYNESBORO*    FAIR      67  66  95 CALM      30.05R

$$

WVZ021-048>050-054>055-231200-
EASTERN WEST VIRGINIA PANHANDLE

CITY           SKY/WX    TMP DP  RH WIND       PRES   REMARKS
MARTINSBURG    FAIR      76  67  73 CALM      29.97R
PETERSBURG*    FAIR      65  65  99 CALM      30.03R FOG

$$

VAZ036>039-050-231200-
CENTRAL FOOTHILLS

CITY           SKY/WX    TMP DP  RH WIND       PRES   REMARKS
CHARLOTTESVILL FAIR      74  69  85 S3        29.98R
CULPEPER*      FAIR      70  70 100 CALM      29.98R FOG
ORANGE*          N/A     72  72 100 CALM      29.99R
GORDONSVILLE*  FAIR      69  69 100 CALM      29.97R FOG
WARRENTON*     FAIR      70  66  86 CALM      29.96R FOG

$$

VAZ055>057-231200-
NORTH AND CENTRAL PIEDMONT

CITY           SKY/WX    TMP DP  RH WIND       PRES   REMARKS
FREDERICKSBRG* FAIR      73  73 100 CALM      29.95R
STAFFORD*      FAIR      70  69  96 CALM      29.99R FOG

$$

NCZ024-NYZ072-PAZ021-071-VAZ022-071-231200-
OTHER REGIONAL OBSERVATIONS

CITY           SKY/WX    TMP DP  RH WIND       PRES   REMARKS
NEW YORK CITY  SUNNY     81  63  54 W6        29.88S
PHILADELPHIA   MOSUNNY   80  69  69 W9        29.90S
PITTSBURGH     PTCLDY    72  68  87 SW3       30.02R
ROANOKE        FAIR      72  67  84 W5        30.06R
RICHMOND       FAIR      74  73  97 S3        29.96R FOG
RALEIGH        PTCLDY    73  71  93 CALM      29.99S

$$

ANZ530>537-231200-
MARINE OBSERVATIONS

STATION/POSITION TIME  TEMP    WIND        PRES
                       AIR SEA DIR/SP/G
                 (UTC) (F)     (DEG/KT/KT) (MB)
THOMAS PT LIGHT  1100   81 81  300/ 12/ 14 1014.8R
BALT KEY BRIDGE  1048   82     270/  7/  8 1013.4R
COVE POINT       1048   81     330/  6/  9 1014.1R
LEWISETTA        1048   79 83  260/  6/  8 1013.5R
SOLOMONS ISLAND  1048   82 83  250/  5/  6   N/A
PINEY POINT      1048          280/  7/  8   N/A

$$





USA.gov is the U.S. government's official web portal to all federal, state and local government web resources and services.